Stevens Point, WI

2:10 AM CST on December 11, 2019 (GMT -0600)
Stevens Point Municipal

Weather History for KSTE - August, 2019

Change the Weather History Date:

Thursday, August 1, 2019

  Actual Average Record
Temperature  
Mean Temperature 62 °F -  
Max Temperature 78 °F 79 °F 93 °F (1955)
Min Temperature 46 °F 58 °F 46 °F (2019)
Degree Days  
Heating Degree Days 3    
Growing Degree Days 12 (Base 50)    
Moisture  
Dew Point 55 °F    
Average Humidity 74    
Maximum Humidity 100    
Minimum Humidity 45    
Precipitation  
Precipitation 0.00 in - - ()
Sea Level Pressure  
Sea Level Pressure 30.21 in    
Wind  
Wind Speed 1 mph (WSW)    
Max Wind Speed 8 mph    
Max Gust Speed -    
Visibility 10 miles    
Events      
Averages and records for this station are not official NWS values.
T = Trace of Precipitation, MM = Missing Value Source: NWS Daily Summary

Daily Weather History Graph

Daily Weather History Graph

Search for Another Location

Airport or City:

Astronomy

Aug. 01, 2019 Rise Set
Actual Time 5:44 AM CDT 8:23 PM CDT
Civil Twilight 5:11 AM CDT 8:56 PM CDT
Nautical Twilight 4:29 AM CDT 9:38 PM CDT
Astronomical Twilight 3:40 AM CDT 10:26 PM CDT
Moon 6:08 AM CDT (8/1) 9:09 PM CDT (8/1)
Length of Visible Light 15h 45m
Length of Day
14h 39m
New Moon, 1% of the Moon is Illuminated
Aug 1
New Moon
Aug 7
First Quarter
Aug 15
Full
Aug 23
Last Quarter
Aug 30
New

Hourly Weather History & Observations

Time (CDT) Temp. Dew Point Humidity Pressure Visibility Wind Dir Wind Speed Gust Speed Precip Events Conditions
12:15 AM 56.3 °F 54.1 °F 92% 30.19 in 10.0 mi Calm Calm - N/A   Clear
12:35 AM 53.6 °F 53.6 °F 100% 30.20 in 10.0 mi Calm Calm - N/A   Clear
12:55 AM 54.0 °F 53.2 °F 97% 30.20 in 10.0 mi Calm Calm - N/A   Clear
1:15 AM 54.0 °F 53.2 °F 97% 30.21 in 10.0 mi Calm Calm - N/A   Clear
1:35 AM 51.4 °F 51.4 °F 100% 30.21 in 10.0 mi Calm Calm - N/A   Clear
1:55 AM 52.0 °F 52.0 °F 100% 30.20 in 10.0 mi Calm Calm - N/A   Clear
2:15 AM 53.6 °F 52.7 °F 97% 30.20 in 10.0 mi Calm Calm - N/A   Clear
2:35 AM 50.5 °F 50.5 °F 100% 30.20 in 10.0 mi Calm Calm - N/A   Clear
2:55 AM 51.1 °F 51.1 °F 100% 30.21 in 10.0 mi Calm Calm - N/A   Clear
3:15 AM 50.4 °F 50.4 °F 100% 30.21 in 10.0 mi Calm Calm - N/A   Clear
3:35 AM 50.2 °F 50.2 °F 100% 30.21 in 10.0 mi Calm Calm - N/A   Clear
3:55 AM 49.5 °F 49.5 °F 100% 30.22 in 10.0 mi Calm Calm - N/A   Clear
4:15 AM 49.3 °F 49.3 °F 100% 30.21 in 10.0 mi Calm Calm - N/A   Clear
4:35 AM 49.1 °F 49.1 °F 100% 30.22 in 10.0 mi Calm Calm - N/A   Clear
4:55 AM 49.6 °F 49.6 °F 100% 30.22 in 10.0 mi Calm Calm - N/A   Clear
5:15 AM 48.2 °F 48.2 °F 100% 30.22 in 10.0 mi Calm Calm - N/A   Clear
5:35 AM 46.9 °F 46.9 °F 100% 30.22 in 10.0 mi Calm Calm - N/A   Clear
5:55 AM 48.4 °F 48.4 °F 100% 30.22 in 10.0 mi Calm Calm - N/A   Clear
6:15 AM 47.5 °F 47.5 °F 100% 30.22 in 10.0 mi Calm Calm - N/A   Clear
6:35 AM 48.9 °F 48.9 °F 100% 30.23 in 10.0 mi Calm Calm - N/A   Clear
6:55 AM 50.5 °F 50.5 °F 100% 30.23 in 10.0 mi Calm Calm - N/A   Clear
7:15 AM 53.6 °F 53.6 °F 100% 30.23 in 10.0 mi Calm Calm - N/A   Clear
7:35 AM 57.0 °F 54.1 °F 90% 30.25 in 10.0 mi Calm Calm - N/A   Clear
7:55 AM 60.6 °F 54.1 °F 79% 30.25 in 10.0 mi Calm Calm - N/A   Clear
8:15 AM 63.9 °F 54.0 °F 70% 30.26 in 10.0 mi SSW 5.8 mph - N/A   Clear
8:35 AM 65.3 °F 54.7 °F 68% 30.25 in 10.0 mi SW 4.6 mph - N/A   Clear
8:55 AM 66.0 °F 55.2 °F 68% 30.26 in 10.0 mi SW 4.6 mph - N/A   Clear
9:15 AM 67.6 °F 55.9 °F 66% 30.26 in 10.0 mi SW 4.6 mph - N/A   Clear
9:35 AM 68.4 °F 55.9 °F 64% 30.25 in 10.0 mi South 3.5 mph - N/A   Clear
9:55 AM 69.6 °F 56.1 °F 62% 30.25 in 10.0 mi SSE 4.6 mph - N/A   Clear
10:15 AM 70.5 °F 56.3 °F 61% 30.25 in 10.0 mi South 3.5 mph - N/A   Clear
10:35 AM 71.2 °F 55.4 °F 57% 30.25 in 10.0 mi South 4.6 mph - N/A   Clear
10:55 AM 72.1 °F 55.0 °F 55% 30.25 in 10.0 mi SSW 3.5 mph - N/A   Clear
11:15 AM 72.3 °F 54.9 °F 54% 30.25 in 10.0 mi SE 3.5 mph - N/A   Clear
11:35 AM 73.4 °F 54.9 °F 52% 30.25 in 10.0 mi SW 3.5 mph - N/A   Scattered Clouds
11:55 AM 74.5 °F 53.8 °F 48% 30.24 in 10.0 mi WSW 5.8 mph - N/A   Scattered Clouds
12:15 PM 74.5 °F 54.5 °F 50% 30.23 in 10.0 mi NW 4.6 mph - N/A   Scattered Clouds
12:35 PM 75.0 °F 55.0 °F 50% 30.23 in 10.0 mi West 4.6 mph - N/A   Scattered Clouds
12:55 PM 74.7 °F 55.0 °F 50% 30.22 in 10.0 mi Calm Calm - N/A   Scattered Clouds
1:15 PM 74.8 °F 54.9 °F 50% 30.22 in 10.0 mi West 4.6 mph - N/A   Scattered Clouds
1:35 PM 76.5 °F 54.9 °F 47% 30.22 in 10.0 mi NW 5.8 mph - N/A   Scattered Clouds
1:55 PM 75.7 °F 54.5 °F 48% 30.21 in 10.0 mi North 4.6 mph - N/A   Scattered Clouds
2:15 PM 76.6 °F 55.4 °F 48% 30.21 in 10.0 mi NW 3.5 mph - N/A   Clear
2:35 PM 77.2 °F 55.2 °F 47% 30.20 in 10.0 mi Calm Calm - N/A   Clear
2:55 PM 77.9 °F 55.0 °F 45% 30.20 in 10.0 mi WNW 4.6 mph - N/A   Clear
3:15 PM 77.5 °F 55.0 °F 46% 30.19 in 10.0 mi NNW 5.8 mph - N/A   Clear
3:35 PM 78.3 °F 55.8 °F 46% 30.19 in 10.0 mi West 8.1 mph - N/A   Clear
4:15 PM 78.4 °F 56.3 °F 46% 30.19 in 10.0 mi West 6.9 mph - N/A   Clear
4:35 PM 78.1 °F 55.4 °F 45% 30.19 in 10.0 mi Calm Calm - N/A   Clear
4:55 PM 77.9 °F 55.6 °F 46% 30.19 in 10.0 mi Calm Calm - N/A   Clear
5:15 PM 78.1 °F 56.7 °F 48% 30.18 in 10.0 mi Calm Calm - N/A   Clear
5:35 PM 77.9 °F 55.9 °F 47% 30.18 in 10.0 mi NNW 3.5 mph - N/A   Clear
5:55 PM 77.5 °F 56.3 °F 48% 30.18 in 10.0 mi Calm Calm - N/A   Clear
6:15 PM 77.2 °F 56.3 °F 48% 30.18 in 10.0 mi Calm Calm - N/A   Clear
6:35 PM 77.7 °F 56.8 °F 48% 30.17 in 10.0 mi WSW 3.5 mph - N/A   Clear
6:55 PM 77.0 °F 56.5 °F 49% 30.18 in 10.0 mi Calm Calm - N/A   Clear
7:15 PM 76.5 °F 56.7 °F 50% 30.18 in 10.0 mi Calm Calm - N/A   Clear
7:35 PM 75.9 °F 58.1 °F 54% 30.18 in 10.0 mi Calm Calm - N/A   Clear
7:55 PM 73.8 °F 60.1 °F 62% 30.18 in 10.0 mi Calm Calm - N/A   Clear
8:15 PM 69.8 °F 61.2 °F 74% 30.17 in 10.0 mi Calm Calm - N/A   Clear
8:35 PM 69.8 °F 61.0 °F 73% 30.18 in 10.0 mi Calm Calm - N/A   Clear
8:55 PM 66.6 °F 60.8 °F 82% 30.18 in 10.0 mi Calm Calm - N/A   Clear
9:15 PM 65.7 °F 61.7 °F 87% 30.18 in 10.0 mi Calm Calm - N/A   Clear
9:35 PM 64.0 °F 61.9 °F 93% 30.18 in 10.0 mi Calm Calm - N/A   Clear
9:55 PM 62.8 °F 61.7 °F 96% 30.18 in 10.0 mi Calm Calm - N/A   Clear
10:15 PM 63.0 °F 61.7 °F 96% 30.18 in 10.0 mi Calm Calm - N/A   Clear
10:35 PM 65.1 °F 60.4 °F 85% 30.19 in 10.0 mi Calm Calm - N/A   Clear
10:55 PM 63.5 °F 61.0 °F 91% 30.19 in 10.0 mi Calm Calm - N/A   Clear
11:15 PM 63.9 °F 60.3 °F 88% 30.19 in 10.0 mi Calm Calm - N/A   Clear
11:35 PM 61.9 °F 60.1 °F 94% 30.19 in 10.0 mi Calm Calm - N/A   Clear
11:55 PM 61.5 °F 59.9 °F 94% 30.19 in 10.0 mi Calm Calm - N/A   Clear